Regional Weather Roundup
Issued by NWS

Home | Current Version | Previous Version | Graphics & Text | Print | Product List | Glossary On
Versions: 1 2 3 4 5 6 7 8 9 10 11 12 13 14 15 16 17 18 19 20 21 22 23 24 25 26 27 28 29 30 31 32 33 34 35 36 37 38 39 40 41 42 43 44 45 46 47 48 49 50
000
ASUS43 KLSX 062257
RWRMO

WEATHER SUMMARY FOR MISSOURI
NATIONAL WEATHER SERVICE SPRINGFIELD MO
500 PM CST SAT FEB 06 2016

NOTE: "FAIR" INDICATES FEW OR NO CLOUDS BELOW 12,000 FEET WITH NO
       SIGNIFICANT WEATHER AND/OR OBSTRUCTIONS TO VISIBILITY.
       CURRENT SKY AND/OR WEATHER CONDITIONS ARE NOT AVAILABLE FOR
       CHILLICOTHE AND FARMINGTON.

MOZ001>031-035>038-043-044-053-054-070000-
...NORTHERN AND WESTERN MISSOURI...

CITY           SKY/WX    TMP DP  RH WIND       PRES   REMARKS
KANSAS CTY INT PTCLDY    46  30  53 SW15      30.18F
LEE`S SUMMIT   CLEAR     47  29  49 SW14      30.19F
ST JOSEPH      CLEAR     47  30  51 SW15      30.17F
CHILLICOTHE      N/A     48  31  51 SW8       30.18F

$$
MOZ066>068-077>081-088>096-101>105-070000-
...SOUTHWEST MISSOURI...

CITY           SKY/WX    TMP DP  RH WIND       PRES   REMARKS
SPRINGFIELD    PTCLDY    51  26  37 SW8       30.22F
JOPLIN         PTCLDY    50  31  48 SW13      30.26S

$$
MOZ032>034-039>042-045>050-055>058-069>072-070000-
...CENTRAL MISSOURI...

CITY           SKY/WX    TMP DP  RH WIND       PRES   REMARKS
COLUMBIA       NOT AVBL
JEFFERSON CITY PTCLDY    54  27  35 W10       30.20S
SEDALIA        CLEAR     50  27  40 SW12      30.21F

$$
MOZ051-052-059>065-070000-
...EAST CENTRAL MISSOURI...

CITY           SKY/WX    TMP DP  RH WIND       PRES   REMARKS
ST LOUIS INTL  PTCLDY    55  25  31 SW10      30.20F

$$
MOZ072>076-082>087-097>100-106>115-070000-
...SOUTH CENTRAL AND SOUTHEAST MISSOURI...

CITY           SKY/WX    TMP DP  RH WIND       PRES   REMARKS
CAPE GIRARDEAU CLEAR     51  24  34 S12       30.26S
POPLAR BLUFF   CLEAR     51  21  30 S10       30.26S
WEST PLAINS    CLEAR     51  17  26 SW8       30.25F

$$


USA.gov is the U.S. government's official web portal to all federal, state and local government web resources and services.